Tracking 25686 objects as of 25-May-2022
HD Live streaming from Space Station
objects crossing your sky now

CZ-4C DEB

Track CZ-4C DEB now!
10-day predictions


NORAD ID: 39015
Int'l Code: 2012-066E
Perigee: 861.8 km
Apogee: 1,339.6 km
Inclination: 63.4 °
Period: 107.1 minutes
Semi major axis: 7471 km
RCS: 6.3394 m2 (large)
Launch date: November 25, 2012
Source: People's Republic of China (PRC)
Launch site: Jiuquan Satellite Launch Center, China (JSC)

Note: This is SATELLITE DEBRIS
aabbcc
Your satellite tracking list
Your tracking list is empty




NASA's NSSDC Master Catalog

Two Line Element Set (TLE):
1 39015U 12066E   22144.46043146  .00000011  00000-0  12846-3 0  9990
2 39015  63.3666 175.8939 0319730  17.3196 343.8442 13.44241109465981
Source of the keplerian elements: AFSPC